TimeCST,TemperatureF,Dew PointF,Humidity,Sea Level PressureIn,VisibilityMPH,Wind Direction,Wind SpeedMPH,Gust SpeedMPH,PrecipitationIn,Events,Conditions,WindDirDegrees,DateUTC
12:15 AM,71.6,51.8,50,29.93,10.0,SSW,15.0,21.9,N/A,,Clear,200,2012-11-10 06:15:00
12:35 AM,69.8,51.8,53,29.93,10.0,SSW,9.2,16.1,N/A,,Clear,210,2012-11-10 06:35:00
12:55 AM,69.8,51.8,53,29.93,10.0,SSW,10.4,23.0,N/A,,Clear,200,2012-11-10 06:55:00
1:15 AM,69.8,53.6,56,29.92,10.0,SSW,11.5,18.4,N/A,,Clear,200,2012-11-10 07:15:00
1:35 AM,68.0,53.6,60,29.92,10.0,SSW,10.4,18.4,N/A,,Clear,200,2012-11-10 07:35:00
1:55 AM,68.0,53.6,60,29.92,10.0,SSW,12.7,18.4,N/A,,Clear,200,2012-11-10 07:55:00
2:15 AM,68.0,53.6,60,29.92,10.0,SSW,16.1,23.0,N/A,,Clear,200,2012-11-10 08:15:00
2:35 AM,68.0,55.4,64,29.92,10.0,SSW,11.5,21.9,N/A,,Clear,200,2012-11-10 08:35:00
2:55 AM,66.2,55.4,68,29.92,10.0,SSW,12.7,18.4,N/A,,Clear,200,2012-11-10 08:55:00
3:15 AM,66.2,55.4,68,29.92,10.0,SSW,9.2,20.7,N/A,,Clear,200,2012-11-10 09:15:00
3:35 AM,64.4,55.4,73,29.92,10.0,SSW,10.4,17.3,N/A,,Clear,200,2012-11-10 09:35:00
3:55 AM,64.4,57.2,77,29.92,10.0,South,13.8,18.4,N/A,,Clear,190,2012-11-10 09:55:00
4:15 AM,64.4,57.2,77,29.93,10.0,SSW,8.1,-,N/A,,Scattered Clouds,200,2012-11-10 10:15:00
4:35 AM,64.4,57.2,77,29.94,10.0,South,10.4,-,N/A,,Mostly Cloudy,180,2012-11-10 10:35:00
4:55 AM,64.4,59.0,83,29.95,10.0,South,8.1,-,N/A,,Overcast,180,2012-11-10 10:55:00
5:15 AM,64.4,59.0,83,29.94,10.0,South,9.2,-,N/A,,Overcast,180,2012-11-10 11:15:00
5:35 AM,64.4,59.0,83,29.95,10.0,South,8.1,-,N/A,,Overcast,180,2012-11-10 11:35:00
5:55 AM,64.4,59.0,83,29.94,10.0,South,9.2,-,N/A,,Overcast,180,2012-11-10 11:55:00
6:35 AM,64.4,59.0,83,29.94,10.0,South,12.7,20.7,N/A,,Overcast,170,2012-11-10 12:35:00
6:55 AM,64.4,59.0,83,29.95,10.0,South,11.5,21.9,N/A,,Overcast,170,2012-11-10 12:55:00
7:15 AM,66.2,59.0,78,29.95,10.0,South,13.8,21.9,N/A,,Overcast,180,2012-11-10 13:15:00
7:35 AM,66.2,57.2,73,29.95,10.0,South,13.8,20.7,N/A,,Overcast,180,2012-11-10 13:35:00
7:55 AM,68.0,57.2,68,29.96,10.0,South,15.0,24.2,N/A,,Overcast,180,2012-11-10 13:55:00
8:15 AM,68.0,57.2,68,29.96,10.0,South,16.1,24.2,N/A,,Overcast,190,2012-11-10 14:15:00
8:35 AM,68.0,59.0,73,29.97,10.0,South,15.0,20.7,N/A,,Overcast,190,2012-11-10 14:35:00
8:55 AM,68.0,59.0,73,29.97,10.0,South,12.7,23.0,N/A,,Overcast,190,2012-11-10 14:55:00
9:15 AM,68.0,59.0,73,29.98,10.0,SSW,18.4,24.2,N/A,,Overcast,200,2012-11-10 15:15:00
9:35 AM,68.0,59.0,73,29.97,10.0,South,12.7,23.0,N/A,,Overcast,190,2012-11-10 15:35:00
9:55 AM,68.0,59.0,73,29.96,10.0,South,11.5,25.3,N/A,,Overcast,180,2012-11-10 15:55:00
10:15 AM,68.0,59.0,73,29.96,10.0,South,13.8,25.3,N/A,,Overcast,190,2012-11-10 16:15:00
10:35 AM,69.8,57.2,64,29.95,10.0,South,15.0,21.9,N/A,,Overcast,190,2012-11-10 16:35:00
10:55 AM,69.8,57.2,64,29.95,10.0,South,12.7,21.9,N/A,,Overcast,190,2012-11-10 16:55:00
11:15 AM,69.8,57.2,64,29.94,10.0,SSW,13.8,23.0,N/A,,Overcast,210,2012-11-10 17:15:00
11:35 AM,69.8,57.2,64,29.92,10.0,SSW,13.8,25.3,N/A,,Overcast,200,2012-11-10 17:35:00
11:55 AM,71.6,57.2,60,29.90,10.0,South,21.9,27.6,N/A,,Mostly Cloudy,180,2012-11-10 17:55:00
12:15 PM,73.4,55.4,53,29.89,10.0,SSW,17.3,28.8,N/A,,Mostly Cloudy,200,2012-11-10 18:15:00
12:35 PM,73.4,55.4,53,29.88,10.0,SSW,18.4,29.9,N/A,,Overcast,200,2012-11-10 18:35:00
12:55 PM,75.2,55.4,50,29.86,10.0,SSW,13.8,29.9,N/A,,Mostly Cloudy,200,2012-11-10 18:55:00
1:15 PM,75.2,55.4,50,29.85,10.0,South,20.7,31.1,N/A,,Scattered Clouds,180,2012-11-10 19:15:00
1:35 PM,77.0,53.6,44,29.84,10.0,South,18.4,32.2,N/A,,Scattered Clouds,190,2012-11-10 19:35:00
1:55 PM,77.0,53.6,44,29.83,10.0,South,20.7,28.8,N/A,,Clear,180,2012-11-10 19:55:00
2:15 PM,77.0,53.6,44,29.82,10.0,South,21.9,26.5,N/A,,Scattered Clouds,170,2012-11-10 20:15:00
2:35 PM,78.8,53.6,42,29.82,10.0,South,20.7,26.5,N/A,,Scattered Clouds,170,2012-11-10 20:35:00
2:55 PM,77.0,53.6,44,29.82,10.0,South,15.0,27.6,N/A,,Scattered Clouds,190,2012-11-10 20:55:00
3:15 PM,77.0,53.6,44,29.81,10.0,South,21.9,29.9,N/A,,Scattered Clouds,180,2012-11-10 21:15:00
3:35 PM,77.0,53.6,44,29.80,10.0,South,18.4,26.5,N/A,,Scattered Clouds,170,2012-11-10 21:35:00
3:55 PM,75.2,53.6,47,29.80,10.0,South,16.1,27.6,N/A,,Clear,190,2012-11-10 21:55:00
4:15 PM,77.0,53.6,44,29.80,10.0,South,17.3,28.8,N/A,,Clear,180,2012-11-10 22:15:00
4:35 PM,75.2,53.6,47,29.79,10.0,South,16.1,26.5,N/A,,Clear,180,2012-11-10 22:35:00
4:55 PM,75.2,53.6,47,29.79,10.0,South,19.6,31.1,N/A,,Clear,180,2012-11-10 22:55:00
5:15 PM,73.4,55.4,53,29.80,10.0,South,18.4,26.5,N/A,,Clear,170,2012-11-10 23:15:00
5:35 PM,73.4,55.4,53,29.80,10.0,South,16.1,24.2,N/A,,Scattered Clouds,170,2012-11-10 23:35:00
5:55 PM,73.4,55.4,53,29.80,10.0,South,13.8,25.3,N/A,,Clear,180,2012-11-10 23:55:00
6:15 PM,71.6,55.4,57,29.81,10.0,South,12.7,19.6,N/A,,Clear,170,2012-11-11 00:15:00
6:35 PM,71.6,55.4,57,29.81,10.0,South,13.8,20.7,N/A,,Clear,170,2012-11-11 00:35:00
6:55 PM,71.6,55.4,57,29.81,10.0,South,15.0,21.9,N/A,,Clear,180,2012-11-11 00:55:00
7:15 PM,71.6,55.4,57,29.81,10.0,South,15.0,21.9,N/A,,Clear,170,2012-11-11 01:15:00
7:35 PM,71.6,55.4,57,29.81,10.0,South,12.7,16.1,N/A,,Clear,170,2012-11-11 01:35:00
7:55 PM,71.6,55.4,57,29.80,10.0,South,13.8,21.9,N/A,,Clear,170,2012-11-11 01:55:00
8:15 PM,71.6,55.4,57,29.80,10.0,South,11.5,20.7,N/A,,Clear,170,2012-11-11 02:15:00
8:35 PM,71.6,53.6,53,29.80,10.0,South,16.1,24.2,N/A,,Clear,170,2012-11-11 02:35:00
8:55 PM,71.6,53.6,53,29.80,10.0,South,15.0,19.6,N/A,,Clear,180,2012-11-11 02:55:00
9:15 PM,71.6,55.4,57,29.81,10.0,South,12.7,21.9,N/A,,Clear,180,2012-11-11 03:15:00
9:35 PM,71.6,55.4,57,29.82,10.0,South,12.7,18.4,N/A,,Clear,180,2012-11-11 03:35:00
9:55 PM,71.6,55.4,57,29.81,10.0,South,11.5,24.2,N/A,,Clear,180,2012-11-11 03:55:00
10:15 PM,71.6,55.4,57,29.81,10.0,South,11.5,25.3,N/A,,Clear,190,2012-11-11 04:15:00
10:35 PM,71.6,55.4,57,29.80,10.0,South,13.8,21.9,N/A,,Clear,190,2012-11-11 04:35:00
10:55 PM,71.6,55.4,57,29.80,10.0,South,16.1,21.9,N/A,,Clear,190,2012-11-11 04:55:00
11:15 PM,69.8,57.2,64,29.80,10.0,SSW,13.8,21.9,N/A,,Clear,200,2012-11-11 05:15:00
11:35 PM,69.8,57.2,64,29.79,10.0,South,11.5,23.0,N/A,,Clear,190,2012-11-11 05:35:00
11:55 PM,69.8,59.0,68,29.78,10.0,South,13.8,24.2,N/A,,Clear,190,2012-11-11 05:55:00